Temp
-14 -14 -14 -14 -14 -14 -14 -15 -15 -15 -15 -15 -15 -15 -15 -15 -15 -15 -15 -15 -15 -16 -16 -16 -16 -16 -17 -17 -17 -17 -17 -17 -18 -18 -19 -19 -20 -20 -20 -20 -20 -20 -20
-14 -14 -14 -14 -14 -14 -15 -15 -15 -15 -15 -15 -15 -15 -15 -15 -15 -15 -15 -15 -16 -16 -16 -16 -17 -17 -17 -17 -17 -17 -18 -18 -18 -19 -19 -19 -20 -20 -20 -20 -20 -20 -20
-15 -15 -14 -14 -14 -15 -15 -16 -15 -15 -14 -14 -14 -14 -14 -15 -15 -15 -16 -16 -16 -16 -16 -16 -17 -17 -17 -17 -18 -18 -18 -19 -19 -19 -19 -19 -19 -19 -19 -19 -19 -20 -21
-15 -15 -15 -14 -14 -14 -15 -15 -15 -15 -15 -15 -14 -14 -15 -15 -15 -16 -16 -16 -16 -16 -16 -17 -17 -17 -17 -18 -18 -19 -19 -19 -20 -20 -20 -20 -19 -19 -20 -20 -21 -21 -22
-15 -15 -15 -15 -15 -15 -15 -15 -15 -15 -15 -15 -15 -15 -15 -15 -16 -16 -16 -16 -16 -16 -17 -17 -17 -17 -18 -19 -19 -19 -19 -20 -20 -20 -20 -20 -21 -21 -21 -21 -21 -22 -22
-15 -15 -15 -15 -15 -15 -15 -15 -15 -15 -15 -15 -15 -15 -16 -16 -16 -16 -16 -16 -17 -17 -17 -18 -18 -18 -19 -19 -19 -20 -20 -20 -20 -21 -21 -21 -22 -22 -22 -23 -23 -23 -23
-15 -15 -15 -15 -15 -15 -15 -15 -15 -15 -15 -15 -16 -16 -16 -16 -16 -16 -17 -17 -17 -18 -18 -18 -18 -19 -19 -20 -20 -20 -20 -20 -21 -21 -22 -22 -22 -22 -23 -22 -23 -23 -25
-15 -15 -15 -15 -15 -15 -15 -15 -15 -15 -16 -16 -16 -16 -16 -16 -17 -17 -17 -18 -18 -18 -18 -19 -19 -19 -20 -20 -20 -20 -21 -21 -21 -22 -22 -22 -23 -23 -23 -23 -23 -25 -26
-15 -15 -15 -15 -15 -15 -15 -15 -15 -15 -16 -16 -16 -16 -17 -17 -17 -18 -18 -19 -19 -19 -19 -20 -20 -20 -20 -20 -20 -20 -21 -21 -21 -22 -22 -23 -23 -23 -23 -23 -25 -27 -28
-15 -15 -15 -15 -15 -15 -15 -15 -15 -16 -16 -16 -17 -17 -17 -18 -18 -18 -19 -19 -19 -20 -20 -20 -20 -20 -20 -20 -20 -21 -22 -22 -22 -22 -23 -23 -24 -23 -24 -25 -27 -29 -30
-15 -15 -15 -15 -15 -16 -16 -16 -16 -16 -16 -17 -17 -18 -18 -19 -19 -19 -19 -19 -19 -20 -20 -20 -20 -20 -21 -21 -21 -22 -22 -22 -22 -23 -23 -24 -24 -24 -26 -28 -29 -31 -31
-15 -15 -15 -15 -15 -15 -16 -16 -16 -16 -17 -17 -18 -18 -19 -19 -19 -19 -19 -20 -20 -20 -20 -20 -20 -21 -21 -21 -22 -22 -22 -22 -23 -24 -24 -24 -24 -25 -28 -30 -30 -31 -31
-15 -15 -15 -15 -15 -15 -16 -16 -17 -17 -17 -18 -18 -19 -19 -19 -19 -19 -19 -20 -20 -20 -20 -20 -21 -21 -22 -22 -22 -22 -22 -23 -24 -23 -24 -24 -26 -28 -30 -31 -31 -31 -31
-15 -15 -15 -15 -14 -15 -15 -16 -16 -17 -17 -18 -18 -19 -19 -19 -19 -20 -20 -20 -20 -20 -20 -21 -21 -22 -22 -22 -22 -23 -24 -24 -24 -24 -24 -25 -27 -29 -31 -31 -32 -32 -31
-16 -16 -16 -16 -15 -16 -16 -17 -17 -18 -18 -18 -19 -19 -18 -19 -20 -20 -19 -20 -20 -20 -21 -21 -21 -22 -22 -23 -24 -25 -25 -24 -24 -25 -26 -28 -29 -31 -31 -32 -32 -32 -32
-16 -17 -17 -16 -17 -17 -17 -18 -18 -18 -18 -19 -19 -19 -19 -20 -20 -20 -20 -21 -20 -21 -22 -21 -22 -22 -23 -24 -24 -25 -24 -25 -26 -28 -28 -29 -31 -32 -32 -33 -33 -32 -32
-16 -17 -17 -17 -17 -17 -18 -18 -18 -18 -19 -19 -19 -19 -20 -20 -20 -21 -20 -21 -21 -22 -22 -22 -23 -24 -24 -24 -25 -25 -26 -27 -28 -28 -30 -31 -32 -32 -33 -33 -33 -32 -32
-16 -16 -16 -17 -17 -17 -18 -18 -18 -19 -19 -19 -19 -20 -20 -20 -20 -21 -22 -22 -22 -23 -23 -23 -24 -25 -25 -25 -26 -27 -28 -29 -30 -30 -31 -32 -32 -33 -33 -33 -33 -33 -32
-16 -16 -16 -17 -18 -19 -19 -19 -19 -19 -19 -19 -19 -20 -20 -21 -21 -22 -22 -23 -23 -23 -24 -24 -25 -26 -25 -26 -28 -28 -29 -30 -30 -32 -32 -33 -33 -34 -34 -33 -33 -33 -33
-16 -16 -17 -18 -18 -18 -18 -19 -19 -19 -19 -20 -20 -20 -21 -21 -22 -22 -23 -23 -23 -24 -24 -25 -25 -26 -28 -29 -29 -30 -30 -31 -31 -33 -33 -33 -34 -34 -34 -34 -34 -33 -33
-18 -18 -18 -18 -18 -19 -19 -19 -19 -20 -20 -20 -21 -21 -22 -23 -23 -23 -23 -23 -24 -25 -26 -26 -28 -29 -29 -30 -30 -31 -31 -31 -32 -33 -33 -34 -34 -34 -34 -34 -34 -34 -33
-17 -18 -18 -19 -19 -19 -20 -20 -20 -21 -21 -21 -21 -22 -23 -23 -24 -23 -23 -24 -25 -26 -26 -29 -30 -29 -30 -31 -31 -31 -32 -32 -33 -34 -34 -34 -34 -34 -34 -34 -34 -34 -34
-18 -18 -19 -19 -20 -20 -20 -20 -20 -21 -21 -21 -22 -23 -24 -24 -25 -24 -25 -26 -26 -27 -29 -29 -29 -30 -31 -31 -31 -32 -32 -33 -34 -34 -34 -34 -34 -34 -34 -35 -35 -35 -35
-18 -18 -19 -19 -20 -20 -20 -20 -21 -21 -22 -22 -23 -23 -24 -25 -26 -26 -26 -27 -29 -30 -29 -30 -30 -30 -31 -31 -31 -32 -32 -32 -34 -34 -34 -34 -35 -35 -35 -35 -35 -35 -35
-18 -19 -19 -20 -20 -20 -20 -21 -21 -22 -23 -23 -23 -24 -24 -26 -27 -27 -28 -29 -29 -30 -30 -30 -30 -30 -31 -32 -32 -32 -32 -33 -34 -34 -35 -35 -35 -35 -35 -35 -36 -36 -36
-20 -20 -20 -20 -20 -20 -21 -21 -22 -23 -23 -23 -23 -24 -25 -26 -28 -28 -29 -30 -30 -30 -30 -31 -31 -31 -32 -33 -33 -33 -33 -33 -34 -35 -35 -35 -35 -35 -35 -35 -36 -36 -36
Height
5801 5800 5799 5799 5799 5800 5800 5800 5798 5798 5799 5797 5796 5795 5794 5792 5790 5787 5783 5780 5777 5772 5768 5764 5759 5755 5751 5746 5742 5737 5732 5726 5720 5716 5711 5706 5701 5697 5692 5688 5682 5676 5670
5798 5798 5798 5800 5800 5800 5800 5797 5795 5795 5794 5794 5791 5791 5789 5788 5785 5780 5776 5773 5769 5766 5762 5757 5752 5748 5743 5737 5732 5726 5720 5713 5707 5702 5698 5695 5692 5686 5679 5673 5664 5658 5650
5796 5796 5796 5797 5797 5797 5795 5793 5791 5790 5789 5789 5789 5788 5787 5784 5780 5775 5771 5767 5764 5760 5755 5750 5744 5738 5732 5727 5720 5714 5708 5701 5694 5689 5684 5679 5674 5669 5663 5655 5646 5638 5629
5795 5794 5791 5790 5790 5790 5791 5791 5791 5787 5786 5783 5782 5780 5778 5775 5772 5769 5766 5763 5758 5752 5746 5739 5733 5727 5720 5714 5707 5700 5694 5688 5682 5675 5668 5662 5656 5650 5646 5635 5625 5614 5601
5789 5791 5789 5786 5785 5785 5785 5785 5786 5784 5784 5781 5778 5774 5771 5768 5764 5761 5757 5752 5747 5741 5735 5728 5721 5714 5707 5700 5695 5688 5681 5675 5669 5663 5656 5647 5639 5630 5622 5617 5605 5593 5573
5785 5786 5787 5784 5783 5783 5783 5782 5782 5781 5779 5777 5774 5771 5768 5764 5759 5754 5748 5742 5736 5730 5724 5716 5709 5701 5695 5688 5682 5675 5669 5661 5654 5646 5637 5629 5620 5610 5601 5590 5580 5564 5548
5781 5782 5782 5781 5781 5781 5779 5778 5779 5777 5774 5771 5767 5763 5759 5754 5749 5743 5737 5732 5725 5718 5712 5704 5697 5690 5683 5676 5668 5661 5654 5647 5638 5630 5621 5613 5602 5591 5579 5563 5552 5537 5523
5776 5778 5778 5779 5778 5778 5776 5775 5774 5771 5768 5764 5760 5755 5750 5745 5739 5734 5727 5720 5713 5706 5699 5692 5685 5678 5671 5663 5655 5647 5639 5631 5623 5614 5603 5593 5582 5570 5555 5538 5519 5509 5501
5773 5773 5775 5774 5773 5772 5771 5769 5767 5764 5761 5756 5751 5745 5741 5736 5729 5721 5714 5707 5701 5693 5687 5680 5672 5663 5656 5650 5642 5633 5625 5616 5607 5595 5584 5572 5562 5548 5531 5515 5498 5483 5480
5769 5767 5767 5768 5768 5766 5763 5759 5757 5755 5752 5748 5742 5735 5730 5723 5716 5710 5703 5695 5689 5682 5674 5667 5659 5650 5642 5634 5626 5617 5608 5598 5587 5577 5565 5552 5540 5526 5510 5495 5482 5471 5464
5766 5765 5765 5764 5763 5760 5756 5752 5748 5746 5742 5738 5731 5724 5717 5710 5704 5698 5692 5684 5676 5669 5661 5653 5645 5637 5628 5619 5609 5600 5592 5582 5570 5559 5548 5535 5521 5505 5490 5478 5467 5460 5454
5763 5761 5758 5757 5755 5753 5751 5746 5739 5734 5730 5725 5719 5712 5704 5697 5692 5686 5679 5672 5664 5656 5647 5639 5631 5623 5613 5604 5595 5586 5575 5565 5552 5542 5529 5517 5504 5488 5474 5463 5457 5450 5445
5755 5753 5750 5747 5745 5743 5740 5734 5728 5722 5716 5711 5706 5699 5691 5685 5679 5673 5666 5658 5651 5643 5634 5626 5616 5608 5598 5588 5579 5569 5558 5547 5536 5526 5514 5499 5486 5472 5461 5451 5446 5441 5435
5746 5742 5738 5734 5731 5727 5725 5721 5715 5708 5703 5699 5693 5686 5677 5672 5666 5659 5651 5644 5636 5628 5620 5610 5601 5593 5584 5572 5559 5550 5540 5531 5521 5507 5495 5482 5471 5459 5448 5442 5437 5432 5426
5736 5731 5728 5724 5720 5715 5710 5706 5702 5698 5693 5687 5680 5672 5666 5660 5653 5645 5638 5630 5622 5614 5605 5597 5587 5578 5567 5556 5542 5532 5524 5514 5503 5490 5475 5464 5455 5448 5437 5432 5427 5422 5417
5733 5729 5722 5717 5713 5709 5703 5699 5694 5688 5681 5673 5666 5660 5654 5646 5639 5631 5623 5615 5607 5597 5590 5581 5571 5560 5550 5538 5527 5517 5508 5497 5486 5473 5463 5452 5442 5434 5427 5422 5418 5413 5408
5723 5718 5713 5708 5704 5699 5695 5689 5683 5676 5669 5661 5653 5648 5641 5633 5626 5618 5609 5600 5591 5583 5573 5563 5553 5543 5533 5522 5513 5502 5491 5481 5469 5457 5449 5439 5431 5422 5418 5412 5407 5402 5396
5711 5707 5702 5695 5690 5686 5681 5675 5669 5663 5657 5650 5643 5636 5629 5621 5613 5603 5594 5586 5577 5567 5555 5545 5536 5526 5516 5508 5496 5486 5476 5466 5453 5447 5437 5429 5422 5414 5410 5404 5399 5393 5388
5699 5694 5689 5687 5681 5674 5668 5662 5656 5650 5644 5638 5632 5624 5616 5607 5600 5589 5580 5570 5562 5551 5540 5529 5519 5510 5501 5490 5481 5472 5464 5453 5444 5435 5427 5420 5413 5407 5402 5396 5391 5386 5380
5689 5685 5679 5673 5667 5661 5655 5649 5643 5638 5633 5625 5617 5610 5602 5593 5585 5576 5564 5554 5544 5535 5524 5514 5505 5495 5486 5476 5468 5459 5449 5442 5434 5426 5419 5412 5406 5400 5395 5390 5384 5379 5373
5679 5671 5666 5660 5654 5649 5643 5635 5629 5624 5618 5610 5603 5596 5588 5579 5571 5560 5549 5538 5530 5520 5511 5501 5490 5482 5474 5465 5455 5446 5439 5432 5424 5417 5410 5405 5400 5394 5388 5383 5378 5373 5367
5667 5661 5655 5647 5642 5637 5632 5625 5618 5612 5605 5598 5590 5582 5573 5564 5555 5546 5534 5524 5515 5507 5497 5487 5479 5472 5465 5455 5444 5436 5429 5420 5414 5409 5403 5397 5393 5388 5382 5376 5371 5366 5360
5655 5649 5643 5637 5630 5625 5620 5615 5607 5600 5592 5585 5575 5566 5558 5548 5539 5530 5520 5509 5499 5490 5484 5477 5469 5460 5452 5446 5437 5429 5420 5413 5406 5401 5396 5391 5386 5381 5376 5371 5366 5360 5354
5643 5636 5631 5626 5620 5613 5606 5600 5594 5586 5577 5568 5560 5551 5542 5532 5524 5515 5506 5494 5483 5478 5471 5464 5457 5450 5441 5433 5427 5421 5414 5406 5399 5393 5388 5384 5380 5375 5371 5366 5361 5357 5351
5629 5624 5619 5613 5607 5600 5593 5586 5578 5570 5562 5553 5544 5535 5525 5516 5508 5498 5490 5483 5474 5465 5457 5450 5443 5436 5429 5423 5417 5410 5404 5398 5391 5385 5381 5377 5374 5370 5366 5362 5357 5353 5348
5615 5610 5605 5599 5593 5585 5578 5571 5563 5554 5545 5536 5528 5518 5509 5499 5491 5484 5477 5468 5462 5454 5445 5436 5429 5421 5414 5408 5403 5398 5393 5388 5383 5379 5375 5372 5368 5365 5360 5357 5353 5349 5345
Wind_Speed
3 5 3 5 8 8 14 16 16 17 17 16 14 11 14 17 21 26 29 31 34 37 40 42 44 47 48 49 50 51 52 52 53 54 51 47 48 50 52 54 57 62 65
4 7 9 8 11 14 14 17 19 18 11 8 12 14 18 22 27 31 34 37 41 43 45 47 50 52 52 52 53 54 55 56 56 53 50 49 50 53 57 60 64 69 73
4 10 14 18 19 19 17 19 23 15 11 13 16 18 22 26 30 35 38 42 44 46 49 52 55 56 58 58 58 56 56 55 53 52 54 56 59 61 64 69 74 78 83
5 11 17 23 27 28 23 20 17 18 16 20 23 27 30 33 36 39 42 45 48 51 54 56 58 59 59 58 57 57 57 53 52 56 60 63 68 71 73 78 81 85 92
18 17 19 25 29 29 25 20 11 14 18 23 28 32 36 39 42 45 49 52 54 55 57 59 60 60 57 55 56 58 54 53 56 60 64 67 70 73 77 82 89 94 107
23 23 24 24 26 25 20 14 15 19 24 29 32 35 38 42 46 50 53 55 56 58 60 60 59 57 55 55 58 55 53 55 58 65 65 68 75 81 84 88 95 97 95
22 21 21 19 18 17 17 19 21 24 28 33 37 41 44 48 51 54 55 56 57 60 60 58 57 55 55 58 56 55 56 59 61 64 64 71 75 79 86 93 97 100 71
19 18 15 9 10 14 19 23 26 29 32 36 40 44 47 51 53 55 57 58 59 60 58 57 56 56 58 57 55 58 62 64 64 64 69 73 79 82 92 95 100 80 64
11 9 9 12 16 20 25 28 31 33 36 40 44 48 50 52 54 57 58 59 59 57 59 57 58 60 60 58 60 65 68 69 69 70 75 80 81 86 92 98 79 66 55
12 15 18 20 22 26 30 34 38 39 41 43 47 50 52 53 55 56 56 58 60 55 58 60 63 61 62 64 68 72 76 80 77 78 81 81 87 87 90 78 65 57 46
16 20 23 26 28 29 32 38 43 45 46 47 49 51 53 54 55 57 57 59 58 58 59 59 60 63 68 70 73 77 88 90 89 88 87 79 83 82 72 58 54 46 42
22 26 30 32 33 35 36 40 47 50 51 49 49 51 53 55 57 56 57 56 57 60 60 59 62 66 67 71 73 83 87 93 93 88 83 81 83 76 58 48 46 42 40
30 33 36 38 41 42 44 45 45 50 51 53 52 53 55 55 55 53 54 57 59 58 61 63 65 68 73 74 78 79 84 83 82 81 82 77 67 57 45 42 42 39 39
37 40 43 45 47 45 47 43 48 53 54 55 55 52 54 54 52 54 57 60 56 60 64 67 71 77 80 79 83 84 79 77 83 83 79 69 58 48 38 40 39 39 39
42 47 48 48 48 52 51 51 50 53 55 53 52 53 54 54 56 59 60 60 61 66 67 70 77 81 82 84 79 74 78 83 80 69 63 56 49 42 38 37 37 37 38
43 46 49 51 50 49 46 50 49 52 51 50 50 54 56 58 58 56 58 62 66 71 78 86 89 91 89 78 76 72 81 71 63 55 55 50 44 40 38 36 36 37 35
45 46 47 49 51 53 47 48 48 47 47 50 54 56 56 56 55 58 61 66 72 71 80 85 87 84 83 78 72 73 67 60 53 52 49 42 40 37 35 35 36 36 36
47 49 51 51 49 46 46 46 47 48 51 53 54 54 55 56 61 61 66 63 71 77 78 80 84 77 70 74 73 67 60 52 50 49 43 39 36 34 34 35 36 35 36
50 51 49 45 41 39 42 46 49 51 52 53 54 56 59 60 59 68 67 66 71 77 82 86 81 74 80 71 63 57 51 48 47 42 38 34 32 34 35 36 35 34 36
46 45 43 43 46 48 50 50 52 51 50 54 56 58 60 60 63 70 67 74 70 72 83 74 76 76 63 58 53 50 49 46 44 38 35 32 32 33 34 34 33 33 34
39 44 45 46 48 49 51 51 51 52 53 56 59 61 62 62 62 67 76 81 78 76 71 75 61 59 55 52 49 48 46 43 39 35 32 31 32 34 34 33 32 32 32
44 44 45 48 48 47 46 48 51 53 57 60 62 63 63 64 63 72 77 73 70 71 72 56 52 52 50 47 46 46 45 42 38 33 32 32 32 32 32 31 31 32 31
46 47 48 46 45 47 48 51 54 57 61 62 63 62 62 61 61 66 68 69 73 68 52 52 51 50 49 45 44 45 43 40 36 32 31 30 30 30 30 30 30 30 31
51 51 48 47 47 49 53 56 60 62 61 61 60 61 62 62 62 64 68 69 55 54 53 53 53 53 51 48 46 42 40 39 35 31 29 29 28 29 29 28 28 27 27
50 48 48 49 52 56 59 62 61 59 58 60 62 64 65 64 63 66 62 55 55 56 57 57 56 56 53 50 47 44 39 37 33 29 27 26 26 27 27 27 26 25 24
47 48 51 55 58 61 62 60 58 60 63 65 67 67 67 66 63 59 55 57 57 57 56 57 58 58 56 53 48 43 38 36 32 27 24 25 26 28 27 26 26 24 23
Wind_Direction
302 302 341 351 323 311 306 315 314 312 309 302 303 310 315 321 320 323 323 322 320 320 322 320 320 319 319 319 317 318 318 316 313 310 308 306 305 303 301 299 298 296 295
314 319 321 323 315 316 309 312 320 320 317 328 318 316 315 317 321 320 318 319 319 319 316 315 315 314 314 315 315 316 318 315 311 308 307 305 303 302 302 302 301 298 296
305 313 320 327 332 328 320 314 321 319 318 321 313 319 316 316 315 314 316 318 316 314 312 311 311 312 312 311 313 315 315 312 308 306 306 305 303 301 300 299 297 296 298
304 323 319 329 330 328 322 316 314 301 318 318 320 318 317 316 315 315 315 312 312 311 313 312 311 310 310 312 313 314 313 311 310 310 309 308 307 307 306 305 304 306 309
316 324 321 322 320 319 318 314 292 295 310 313 314 313 314 314 314 313 312 312 313 313 311 311 310 311 312 313 313 313 312 313 314 314 313 312 312 309 308 309 311 312 314
314 317 311 307 307 308 308 301 296 298 307 310 310 309 309 310 310 310 310 311 311 309 310 310 311 311 311 311 312 312 313 314 316 317 315 315 317 315 315 314 316 317 317
297 302 300 303 302 307 306 304 300 301 304 306 307 309 309 309 309 308 308 308 307 308 310 310 310 310 311 312 312 312 311 311 314 317 315 318 318 316 318 319 320 324 312
294 293 299 305 308 302 298 296 300 301 303 305 306 306 306 307 306 305 306 307 307 308 311 311 311 311 311 310 310 311 310 311 311 315 315 314 314 319 325 323 325 318 311
299 310 305 307 303 299 296 299 301 303 305 306 305 304 304 304 303 305 306 307 309 311 311 312 311 311 311 309 310 311 310 310 310 310 309 310 317 324 326 328 321 313 310
307 306 308 308 305 303 303 304 304 306 306 304 303 302 303 303 303 305 306 306 308 305 309 306 309 309 309 309 310 311 312 311 308 308 308 309 321 327 328 326 317 313 308
296 297 297 298 300 304 306 304 302 303 304 304 304 304 303 302 303 305 306 305 306 308 309 306 308 309 308 308 309 311 315 315 309 305 305 316 327 330 327 319 315 310 305
290 293 294 295 298 300 301 302 301 303 305 305 304 303 302 302 303 304 304 304 306 307 306 309 308 308 309 309 307 310 314 315 307 303 307 324 329 328 323 318 312 307 303
295 296 297 298 298 300 303 305 305 308 308 309 307 304 300 300 302 304 305 307 307 310 307 307 309 311 309 308 307 310 311 308 305 311 321 330 327 320 318 317 310 306 304
301 300 302 304 307 304 304 304 306 307 305 304 303 301 300 305 307 307 306 306 308 307 308 307 306 308 304 302 300 303 306 304 308 319 327 327 321 318 316 312 308 304 303
302 304 307 307 306 307 309 305 306 301 301 300 302 302 306 307 308 308 309 309 308 309 310 306 302 302 300 299 303 300 305 311 321 326 323 318 316 316 314 311 308 306 305
295 298 298 302 305 305 300 301 296 298 301 304 303 304 310 310 308 308 307 307 312 309 305 306 301 299 300 300 301 308 311 325 326 320 318 314 316 315 314 311 308 306 304
294 296 299 301 302 301 299 297 300 302 303 303 305 308 307 307 307 308 307 307 306 305 307 307 305 304 302 302 304 318 327 327 316 315 311 314 314 315 315 313 312 312 312
297 298 300 302 302 304 304 304 303 302 303 304 305 304 306 308 309 310 306 303 301 307 307 307 304 301 300 305 320 325 325 317 315 310 312 315 316 316 317 317 317 315 313
299 301 301 306 307 301 299 300 301 303 305 304 306 309 311 309 305 304 302 303 303 306 306 302 303 302 306 319 326 322 316 317 311 311 314 316 319 320 319 318 318 316 317
300 301 304 305 303 303 304 304 304 304 306 308 309 309 308 307 308 302 296 301 304 306 304 299 299 310 326 327 318 313 317 315 312 312 313 318 320 321 321 321 319 318 319
304 302 305 304 303 303 303 305 306 307 309 310 310 309 305 308 301 298 295 294 301 301 301 300 319 327 326 318 314 316 317 315 314 314 314 318 319 320 320 320 319 320 322
302 302 302 301 301 301 302 303 305 307 310 310 308 305 305 304 304 301 302 305 303 299 305 323 327 328 324 318 316 317 318 317 315 314 313 316 320 321 321 321 322 323 325
301 301 301 300 299 300 303 307 308 308 307 306 305 304 303 301 298 298 303 301 298 310 321 321 324 327 324 323 320 318 318 316 313 312 313 316 321 323 323 325 325 327 330
300 300 300 300 303 304 305 307 308 308 307 306 306 305 304 302 299 301 299 306 318 319 319 320 324 324 322 320 317 316 315 314 312 312 314 316 321 323 322 322 325 329 335
299 299 301 302 303 304 306 308 309 309 309 308 308 309 308 305 301 301 310 315 317 318 319 319 320 321 321 317 314 313 314 313 311 311 312 314 318 319 319 322 324 325 332
301 302 302 303 305 307 307 308 309 309 310 310 310 309 306 304 305 309 312 314 315 314 314 316 318 319 318 316 313 312 311 311 309 307 307 309 312 315 315 318 320 321 323